Simultaneous Nadir Overpasses (SNOs) Predictions

Prediction of SNOs between NPP and TERRA Satellite Orbit:

Table of predicted SNOs for the next 14.0 days since TLE Epoch: 6/28/2015
Index Date (NPP) Time (NPP) Lat,Lon (NPP) SZA (NPP ) Date (TERRA) Time (TERRA) Lat,Lon (TERRA) SZA (TERRA ) Distance(km) Time Diff (sec)
1 06/30/2015 16:45:28 68.81, -72.13 45.55 06/30/2015 16:45:59 68.80, -72.15 45.54 0.84 31
2 06/30/2015 17:36:09 -68.67, 95.37 134.60 06/30/2015 17:35:29 -68.69, 95.35 134.57 3.15 40
3 07/03/2015 08:11:46 -69.37,-124.45 133.69 07/03/2015 08:12:56 -69.29,-123.29 133.80 46.51 70
4 07/03/2015 09:02:21 68.78, 43.67 45.71 07/03/2015 09:02:30 68.79, 43.71 45.72 1.72 9
5 07/03/2015 09:53:02 -68.63,-148.82 134.44 07/03/2015 09:52:01 -68.63,-148.85 134.44 1.67 61
6 07/06/2015 00:28:30 -68.87, -7.98 133.97 07/06/2015 00:29:34 -68.88, -7.95 133.96 2.03 64
7 07/06/2015 01:19:13 68.70, 159.54 45.87 07/06/2015 01:19:02 68.71, 159.48 45.88 2.37 11
8 07/06/2015 02:09:49 -68.29, -32.59 134.55 07/06/2015 02:08:37 -68.33, -33.34 134.49 31.24 72
9 07/08/2015 16:45:21 -68.79, 107.89 133.76 07/08/2015 16:46:05 -68.79, 107.82 133.76 2.82 44
10 07/08/2015 17:36:05 68.69, -84.66 46.14 07/08/2015 17:35:32 68.67, -84.69 46.13 1.85 33
11 07/11/2015 08:11:46 69.62, 55.18 47.43 07/11/2015 08:12:54 69.51, 56.99 47.28 71.67 68
12 07/11/2015 09:02:14 -68.77,-136.32 133.45 07/11/2015 09:02:36 -68.75,-136.36 133.47 2.86 22
13 07/11/2015 09:52:57 68.62, 31.20
